INTELSAT 15 (IS-15)

Last updated on Sun Apr 12 2026 00:02:52 GMT+0000 (Coordinated Universal Time)

1 36106U 09067A 26101.47406078 -.00000184 00000+0 00000+0 0 9996 2 36106 0.0135 130.6722 0002316 251.7744 73.0654 1.00271940 40553
UTC large
Height (km)
Speed (km/s)
/
Latitude / Longitude
Inclination (degrees)
Orbital Period (minutes)
Azimuth
Elevation
Range (km)
Doppler Factor

Next 0 passes for location: London (51.5072 / 0.1276)

Sorry there are no passes over London.
INTELSAT 15 (IS-15)